World > North America > United States > Ohio > Graysville  

Graysville, OH Hourly Weather Updates

Feedback E-mail the Weather

Quick Clicks

Graysville, OH Weather Maps

°F °C°F °C
Graysville Weather Map
UTC Time: 4/16/2024, 20:38
Your Time:

Graysville, OH Regional Weather

Expires:202404162100;;858419
ASUS41 KCLE 162012
RWRCLE
OHIO REGIONAL WEATHER ROUNDUP
NATIONAL WEATHER SERVICE WILMINGTON, OH
400 PM EDT TUE APR 16 2024

NOTE: "FAIR" INDICATES FEW OR NO CLOUDS BELOW 12,000 FEET WITH NO
SIGNIFICANT WEATHER AND/OR OBSTRUCTIONS TO VISIBILITY.


OHZ036-037-039>041-045>050-054>059-063>069-073>076-082>088-162100-
  CENTRAL AND SOUTHEAST OHIO
  
CITY           SKY/WX    TMP DP  RH WIND       PRES   REMARKS
COLUMBUS       PTSUNNY   83  57  41 SE7       29.99F                  
OSU AIRPORT    FAIR      84  57  39 MISG      29.99F                  
BOLTON FIELD   SUNNY     82  61  47 S13       30.01F                  
RICKENBACK AFB FAIR      83  59  43 S5        29.99F                  
NEWARK         FAIR      83  53  35 S8        30.01F                  
MARION         FAIR      80  49  33 SE6       30.02F                  
LANCASTER      FAIR      83  60  45 SW7       30.00F                  
ZANESVILLE     FAIR      84  49  29 NW7       30.02F                  
NEW PHILLY     FAIR      80  39  23 VRB3      30.05F                  
$$
  

SKY/WX - Weather  TMP - Temperature  DP - Dew Point  RH - Humidity
WIND - Wind Direction/Speed PRES - Barometric Pressure VSB - Visibility
WCI - Wind Chill Index E13G22 Wind - East Wind 13 mph/Gusts of 22 mph

Trending Headlines

Trending Entertainment Headlines

Graysville Radar Loop

Use the map search tool if you want to place a location marker on the radar map...

Graysville Quick Facts

National Two Day Weather Forecast


E-mail the Graysville Weather Forecast

Voice your opinion or tell us about page issues...